Vero Beach, FL

9:36 AM EDT on August 16, 2017 (GMT -0400)
Vero Beach Municipal

Weather History for KVRB - November, 2011

Change the Weather History Date:

Tuesday, November 15, 2011

  Actual Average Record
Temperature  
Mean Temperature 78 °F 70 °F  
Max Temperature 85 °F 79 °F 87 °F (1970)
Min Temperature 70 °F 62 °F 38 °F (1969)
Degree Days  
Heating Degree Days 0 1  
Month to date heating degree days 4 7  
Since 1 July heating degree days 7 10  
Cooling Degree Days 13 6  
Month to date cooling degree days 98 106  
Year to date cooling degree days 3442 3234  
Growing Degree Days 26 (Base 50)    
Moisture  
Dew Point 72 °F    
Average Humidity 87    
Maximum Humidity 100    
Minimum Humidity 74    
Precipitation  
Precipitation 0.25 in 0.11 in 4.82 in (1994)
Month to date precipitation 0.54 1.80  
Year to date precipitation 59.05 48.20  
Sea Level Pressure  
Sea Level Pressure 30.05 in    
Wind  
Wind Speed 8 mph (SSE)    
Max Wind Speed 20 mph    
Max Gust Speed 23 mph    
Visibility 8 miles    
Events Fog , Rain    
T = Trace of Precipitation, MM = Missing Value Source: NWS Daily Summary

Daily Weather History Graph

Daily Weather History Graph

Search for Another Location

Airport or City:

Trip Planner

Search our weather history database for the weather conditions in past years. The results will help you decide how hot, cold, wet, or windy it might be!

Date:

Astronomy

Nov. 15, 2011 Rise Set
Actual Time 6:42 AM EST 5:29 PM EST
Civil Twilight 6:17 AM EST 5:54 PM EST
Nautical Twilight 5:49 AM EST 6:22 PM EST
Astronomical Twilight 5:21 AM EST 6:50 PM EST
Moon 9:38 PM EST (11/15) 10:37 AM EST (11/15)
Length of Visible Light 11h 36m
Length of Day
10h 47m
Waning Gibbous, 79% of the Moon is Illuminated
Nov 15
Waning Gibbous
Nov 18
Last Quarter
Nov 25
New
Dec 2
First Quarter
Dec 10
Full

Hourly Weather History & Observations

Time (EST) Temp. Heat Index Dew Point Humidity Pressure Visibility Wind Dir Wind Speed Gust Speed Precip Events Conditions
12:31 AM 77.0 °F - 71.6 °F 83% 30.07 in 10.0 mi ESE 10.4 mph 18.4 mph N/A   Overcast
12:53 AM 77.0 °F - 72.0 °F 84% 30.06 in 10.0 mi ESE 10.4 mph - N/A   Overcast
1:53 AM 77.0 °F - 72.0 °F 84% 30.05 in 10.0 mi ESE 11.5 mph - N/A   Overcast
2:09 AM 77.0 °F - 71.6 °F 83% 30.04 in 10.0 mi ESE 13.8 mph - N/A   Overcast
2:26 AM 75.2 °F - 71.6 °F 89% 30.04 in 4.0 mi SE 15.0 mph 23.0 mph 0.00 in Rain Light Rain
2:31 AM 75.2 °F - 71.6 °F 89% 30.04 in 5.0 mi SSE 10.4 mph 19.6 mph 0.00 in Rain Light Rain
2:53 AM 75.0 °F - 72.0 °F 90% 30.04 in 10.0 mi SE 6.9 mph - 0.01 in   Overcast
3:21 AM 75.2 °F - 71.6 °F 89% 30.04 in 10.0 mi SE 6.9 mph - N/A   Overcast
3:44 AM 75.2 °F - 71.6 °F 89% 30.03 in 5.0 mi SE 4.6 mph - 0.00 in Rain Light Rain
3:53 AM 75.9 °F - 73.0 °F 91% 30.03 in 7.0 mi SSE 9.2 mph - 0.00 in Rain Light Rain
4:00 AM 75.2 °F - 73.4 °F 94% 30.03 in 2.5 mi South 6.9 mph - 0.01 in Rain Light Rain
4:08 AM 75.2 °F - 73.4 °F 94% 30.03 in 1.2 mi South 3.5 mph - 0.11 in Rain Heavy Rain
4:17 AM 75.2 °F - 71.6 °F 89% 30.04 in 2.0 mi Variable 5.8 mph - 0.18 in Rain Rain
4:29 AM 75.2 °F - 73.4 °F 94% 30.03 in 8.0 mi SSE 4.6 mph - 0.23 in Rain Light Rain
4:53 AM 75.0 °F - 72.0 °F 90% 30.04 in 10.0 mi Calm Calm - 0.24 in   Overcast
5:10 AM 73.4 °F - 71.6 °F 94% 30.04 in 10.0 mi Calm Calm - N/A   Mostly Cloudy
5:18 AM 73.4 °F - 71.6 °F 94% 30.05 in 10.0 mi Calm Calm - N/A   Partly Cloudy
5:42 AM 73.4 °F - 71.6 °F 94% 30.05 in 1.8 mi Calm Calm - N/A   Partly Cloudy
5:53 AM 72.0 °F - 71.1 °F 97% 30.05 in 1.0 mi Calm Calm - N/A   Mist
6:01 AM 71.6 °F - 71.6 °F 100% 30.05 in 0.8 mi Calm Calm - N/A   Mist
6:29 AM 71.6 °F - 69.8 °F 94% 30.05 in 0.2 mi Calm Calm - N/A Fog Fog
6:53 AM 70.0 °F - 69.1 °F 97% 30.06 in 0.2 mi Calm Calm - N/A Fog Fog
7:53 AM 73.4 °F - 71.6 °F 94% 30.07 in 10.0 mi Calm Calm - N/A   Partly Cloudy
8:53 AM 78.8 °F - 73.4 °F 83% 30.08 in 10.0 mi South 9.2 mph - N/A   Scattered Clouds
9:21 AM 80.6 °F 85.4 °F 73.4 °F 79% 30.08 in 10.0 mi South 9.2 mph - N/A   Mostly Cloudy
9:46 AM 80.6 °F 85.4 °F 73.4 °F 79% 30.08 in 10.0 mi South 11.5 mph - N/A   Scattered Clouds
9:53 AM 80.6 °F 85.4 °F 73.4 °F 79% 30.08 in 10.0 mi SSE 10.4 mph - N/A   Mostly Cloudy
10:53 AM 82.0 °F 87.4 °F 73.0 °F 74% 30.07 in 10.0 mi SE 9.2 mph - N/A   Scattered Clouds
11:53 AM 82.0 °F 87.4 °F 73.0 °F 74% 30.06 in 10.0 mi SSE 11.5 mph - N/A   Mostly Cloudy
12:53 PM 82.0 °F 87.4 °F 73.0 °F 74% 30.04 in 10.0 mi SE 11.5 mph - N/A   Mostly Cloudy
1:00 PM 82.4 °F 88.2 °F 73.4 °F 74% 30.03 in 10.0 mi SE 15.0 mph - N/A   Scattered Clouds
1:53 PM 81.0 °F 86.2 °F 73.9 °F 79% 30.02 in 10.0 mi SE 13.8 mph - 0.00 in Rain Light Rain
2:53 PM 81.0 °F 85.2 °F 72.0 °F 74% 30.01 in 10.0 mi SSE 17.3 mph 23.0 mph 0.00 in   Mostly Cloudy
3:53 PM 80.1 °F 84.2 °F 73.0 °F 79% 30.01 in 10.0 mi SE 16.1 mph - N/A   Overcast
4:53 PM 80.1 °F 84.2 °F 73.0 °F 79% 30.01 in 10.0 mi SE 11.5 mph - N/A   Clear
5:53 PM 79.0 °F - 73.0 °F 82% 30.03 in 10.0 mi SE 12.7 mph - N/A   Clear
6:53 PM 78.1 °F - 73.0 °F 84% 30.04 in 10.0 mi SSE 10.4 mph - N/A   Clear
7:53 PM 78.1 °F - 73.0 °F 84% 30.05 in 10.0 mi SSE 8.1 mph - N/A   Clear
8:53 PM 77.0 °F - 73.0 °F 88% 30.06 in 10.0 mi SSE 8.1 mph - N/A   Clear
9:53 PM 75.9 °F - 72.0 °F 87% 30.06 in 10.0 mi SSE 5.8 mph - N/A   Clear
10:53 PM 75.9 °F - 72.0 °F 87% 30.07 in 10.0 mi South 5.8 mph - N/A   Clear
11:53 PM 75.0 °F - 72.0 °F 90% 30.07 in 10.0 mi South 4.6 mph - N/A   Mostly Cloudy